Regional Weather Roundup
Issued by NWS

Home | Current Version | Previous Version | Graphics & Text | Print | Product List | Glossary On
Versions: 1 2 3 4 5 6 7 8 9 10 11 12 13 14 15 16 17 18 19 20 21 22 23 24 25 26 27 28 29 30 31 32 33 34 35 36 37 38 39 40 41 42 43 44 45 46 47 48 49 50
000
ASUS43 KLMK 191302
RWRKY
KENTUCKY REGIONAL WEATHER ROUNDUP
NATIONAL WEATHER SERVICE LOUISVILLE KY
900 AM EDT FRI SEP 19 2014

NOTE "FAIR" INDICATES FEW OR NO CLOUDS BELOW 12,000 FEET
WITH NO SIGNIFICANT WEATHER AND/OR OBSTRUCTIONS TO VISIBILITY.

KYZ001>023-026-027-061>063-070>075-191400-
WESTERN AND SOUTH CENTRAL KENTUCKY

CITY           SKY/WX    TMP DP  RH WIND       PRES   REMARKS
PADUCAH        SUNNY     64  56  75 NE3       30.07R
HENDERSON      SUNNY     59  52  77 NE6       30.11R
OWENSBORO      SUNNY     61  52  72 NE9       30.11R
HOPKINSVILLE   SUNNY     60  58  94 E7        30.07R
BOWLING GREEN  SUNNY     60  54  80 NE6       30.10R
GLASGOW        SUNNY     58  54  85 CALM      30.11R
$$

KYZ024-025-028>034-038-045-046-053-191400-
NORTH CENTRAL KENTUCKY

CITY           SKY/WX    TMP DP  RH WIND       PRES   REMARKS
LOUISVILLE/SDF MOSUNNY   61  48  62 E6        30.14R
LOUISVILLE/LOU SUNNY     59  48  67 E8        30.15R
FORT KNOX      SUNNY     57  49  75 NE8       30.12R
$$

KYZ035>037-039>044-047>052-055>060-089>105-191400-
NORTHEAST KENTUCKY

CITY           SKY/WX    TMP DP  RH WIND       PRES   REMARKS
LEXINGTON      SUNNY     60  48  64 NE7       30.15R
COVINGTON      SUNNY     57  50  77 E10       30.18R
FRANKFORT      SUNNY     57  48  72 NE7       30.15R
$$

KYZ054-064>069-076>088-106>120-191400-
SOUTHEAST KENTUCKY

CITY           SKY/WX    TMP DP  RH WIND       PRES   REMARKS
JACKSON        SUNNY     56  50  80 CALM      30.14S
LONDON         SUNNY     59  53  80 CALM      30.13S
SOMERSET       NOT AVBL
MIDDLESBORO    FOG       54  54 100 CALM      30.15R VSB 1/2
MONTICELLO     SUNNY     60  56  87 CALM      30.13S
$$



USA.gov is the U.S. government's official web portal to all federal, state and local government web resources and services.